| time (UTC) | temp F | wind direction | speed MPH | gust MPH | rain 1hr in | rain 24hr in | rain mn in | humidity % | barometer mb |
| 20260504023655 | 68 | 321 | 0.0 | 2.0 | 0.00 | 0.00 | 0.00 | 41 | 1016.2 |
| 20260504022654 | 69 | 321 | 0.0 | 2.0 | 0.00 | 0.00 | 0.00 | 39 | 1016.2 |
| 20260504021653 | 69 | 321 | 1.0 | 2.0 | 0.00 | 0.00 | 0.00 | 37 | 1016.0 |
| 20260504020621 | 70 | 323 | 0.0 | 1.0 | 0.00 | 0.00 | 0.00 | 37 | 1015.9 |
| 20260504015620 | 70 | 336 | 1.0 | 2.0 | 0.00 | 0.00 | 0.00 | 37 | 1015.9 |
| 20260504014619 | 71 | 345 | 1.0 | 5.0 | 0.00 | 0.00 | 0.00 | 35 | 1016.1 |
| 20260504013618 | 71 | 326 | 2.0 | 5.0 | 0.00 | 0.00 | 0.00 | 36 | 1016.1 |
| 20260504012616 | 72 | 326 | 1.0 | 4.0 | 0.00 | 0.00 | 0.00 | 34 | 1015.9 |
| 20260504011545 | 72 | 328 | 1.0 | 8.0 | 0.00 | 0.00 | 0.00 | 32 | 1015.7 |
| 20260504010544 | 72 | 7 | 1.0 | 8.0 | 0.00 | 0.00 | 0.00 | 33 | 1015.7 |
| 20260504005512 | 72 | 10 | 1.0 | 6.0 | 0.00 | 0.00 | 0.00 | 34 | 1016.0 |
| 20260504004511 | 72 | 7 | 2.0 | 4.0 | 0.00 | 0.00 | 0.00 | 34 | 1016.0 |
| 20260504003510 | 72 | 8 | 2.0 | 3.0 | 0.00 | 0.00 | 0.00 | 34 | 1016.0 |
| 20260504002508 | 72 | 13 | 2.0 | 3.0 | 0.00 | 0.00 | 0.00 | 33 | 1016.0 |
| 20260504001508 | 72 | 11 | 2.0 | 5.0 | 0.00 | 0.00 | 0.00 | 32 | 1016.1 |
| 20260504000436 | 72 | 5 | 2.0 | 4.0 | 0.00 | 0.00 | 0.00 | 33 | 1016.1 |
| 20260503235301 | 72 | 21 | 2.0 | 9.0 | 0.00 | 0.00 | 0.00 | 34 | 1016.4 |
| 20260503234300 | 72 | 20 | 5.0 | 9.0 | 0.00 | 0.00 | 0.00 | 38 | 1016.2 |
| 20260503233228 | 72 | 29 | 1.0 | 4.0 | 0.00 | 0.00 | 0.00 | 39 | 1016.7 |
| 20260503232226 | 73 | 23 | 1.0 | 4.0 | 0.00 | 0.00 | 0.00 | 36 | 1016.4 |
| 20260503231225 | 73 | 33 | 1.0 | 4.0 | 0.00 | 0.00 | 0.00 | 36 | 1016.7 |
| 20260503230224 | 74 | 10 | 1.0 | 7.0 | 0.00 | 0.00 | 0.00 | 37 | 1016.8 |
| 20260503225223 | 74 | 11 | 2.0 | 7.0 | 0.00 | 0.00 | 0.00 | 36 | 1016.9 |
| 20260503224222 | 74 | 280 | 2.0 | 7.0 | 0.00 | 0.00 | 0.00 | 33 | 1017.3 |
| 20260503223221 | 73 | 288 | 2.0 | 7.0 | 0.00 | 0.00 | 0.00 | 37 | 1017.2 |
| 20260503222220 | 74 | 318 | 2.0 | 7.0 | 0.00 | 0.00 | 0.00 | 37 | 1017.4 |
| 20260503221218 | 74 | 341 | 1.0 | 5.0 | 0.00 | 0.00 | 0.00 | 33 | 1017.3 |
| 20260503220218 | 74 | 17 | 2.0 | 5.0 | 0.00 | 0.00 | 0.00 | 34 | 1017.8 |
| 20260503215216 | 74 | 315 | 2.0 | 4.0 | 0.00 | 0.00 | 0.00 | 34 | 1017.8 |
| 20260503214214 | 74 | 348 | 2.0 | 4.0 | 0.00 | 0.00 | 0.00 | 33 | 1017.8 |
| 20260503213213 | 74 | 14 | 2.0 | 4.0 | 0.00 | 0.00 | 0.00 | 32 | 1018.0 |
| 20260503212212 | 73 | 10 | 2.0 | 3.0 | 0.00 | 0.00 | 0.00 | 34 | 1018.0 |
| 20260503211211 | 74 | 340 | 1.0 | 6.0 | 0.00 | 0.00 | 0.00 | 31 | 1018.4 |
| 20260503210210 | 74 | 11 | 1.0 | 7.0 | 0.00 | 0.00 | 0.00 | 33 | 1018.5 |
| 20260503205209 | 74 | 338 | 1.0 | 6.0 | 0.00 | 0.00 | 0.00 | 33 | 1019.0 |
| 20260503204208 | 74 | 319 | 1.0 | 6.0 | 0.00 | 0.00 | 0.00 | 34 | 1019.1 |
| 20260503203208 | 74 | 255 | 1.0 | 6.0 | 0.00 | 0.00 | 0.00 | 32 | 1019.0 |
| 20260503202207 | 74 | 295 | 2.0 | 5.0 | 0.00 | 0.00 | 0.00 | 31 | 1019.0 |
| 20260503201206 | 74 | 347 | 2.0 | 5.0 | 0.00 | 0.00 | 0.00 | 35 | 1019.3 |
| 20260503200205 | 74 | 16 | 1.0 | 5.0 | 0.00 | 0.00 | 0.00 | 35 | 1019.3 |
| 20260503195203 | 74 | 332 | 1.0 | 4.0 | 0.00 | 0.00 | 0.00 | 35 | 1019.5 |
| 20260503194131 | 73 | 31 | 1.0 | 4.0 | 0.00 | 0.00 | 0.00 | 35 | 1019.4 |
| 20260503193130 | 72 | 275 | 2.0 | 4.0 | 0.00 | 0.00 | 0.00 | 32 | 1019.4 |
| 20260503192129 | 72 | 110 | 1.0 | 4.0 | 0.00 | 0.00 | 0.00 | 38 | 1019.8 |
| 20260503191128 | 72 | 68 | 1.0 | 4.0 | 0.00 | 0.00 | 0.00 | 36 | 1019.8 |
| 20260503190127 | 72 | 14 | 2.0 | 4.0 | 0.00 | 0.00 | 0.00 | 36 | 1019.8 |
| 20260503185126 | 72 | 32 | 1.0 | 4.0 | 0.00 | 0.00 | 0.00 | 40 | 1020.1 |
| 20260503184124 | 72 | 32 | 2.0 | 4.0 | 0.00 | 0.00 | 0.00 | 37 | 1020.1 |
| 20260503183052 | 71 | 107 | 2.0 | 5.0 | 0.00 | 0.00 | 0.00 | 39 | 1020.1 |
| 20260503182052 | 70 | 18 | 3.0 | 5.0 | 0.00 | 0.00 | 0.00 | 39 | 1020.0 |
| 20260503181051 | 70 | 23 | 2.0 | 5.0 | 0.00 | 0.00 | 0.00 | 41 | 1020.4 |
| 20260503180019 | 70 | 54 | 1.0 | 4.0 | 0.00 | 0.00 | 0.00 | 41 | 1020.4 |
| 20260503175018 | 69 | 73 | 1.0 | 4.0 | 0.00 | 0.00 | 0.00 | 41 | 1020.4 |
| 20260503174017 | 70 | 31 | 1.0 | 4.0 | 0.00 | 0.00 | 0.00 | 41 | 1020.7 |
| 20260503173016 | 69 | 34 | 2.0 | 4.0 | 0.00 | 0.00 | 0.00 | 45 | 1020.7 |
| 20260503172016 | 67 | 74 | 0.0 | 3.0 | 0.00 | 0.00 | 0.00 | 48 | 1020.6 |
| 20260503171015 | 65 | 66 | 1.0 | 3.0 | 0.00 | 0.00 | 0.00 | 50 | 1020.3 |
| 20260503150656 | 58 | 24 | 1.0 | 4.0 | 0.00 | 0.00 | 0.00 | 57 | 1019.9 |
| 20260503130541 | 46 | 131 | 2.0 | 3.0 | 0.00 | 0.00 | 0.00 | 75 | 1020.3 |
| 20260503110459 | 48 | 147 | 0.0 | 4.0 | 0.00 | 0.00 | 0.00 | 70 | 1020.9 |
| 20260503090314 | 51 | 218 | 1.0 | 3.0 | 0.00 | 0.00 | 0.00 | 65 | 1020.7 |
| 20260503081205 | 52 | 222 | 2.0 | 5.0 | 0.00 | 0.00 | 0.00 | 61 | 1020.9 |
| 20260503080204 | 51 | 223 | 2.0 | 6.0 | 0.00 | 0.00 | 0.00 | 63 | 1020.5 |
| 20260503072200 | 52 | 163 | 0.0 | 0.0 | 0.00 | 0.00 | 0.00 | 64 | 1020.4 |
| 20260503071159 | 52 | 163 | 0.0 | 0.0 | 0.00 | 0.00 | 0.00 | 63 | 1020.4 |
| 20260503070158 | 52 | 163 | 0.0 | 0.0 | 0.00 | 0.00 | 0.00 | 63 | 1020.3 |
| 20260503060121 | 54 | 163 | 0.0 | 0.0 | 0.00 | 0.00 | 0.00 | 59 | 1020.3 |
| 20260503055121 | 54 | 162 | 0.0 | 0.0 | 0.00 | 0.00 | 0.00 | 59 | 1020.2 |
| 20260503054120 | 54 | 151 | 0.0 | 2.0 | 0.00 | 0.00 | 0.00 | 59 | 1020.2 |
| 20260503053119 | 54 | 152 | 0.0 | 5.0 | 0.00 | 0.00 | 0.00 | 58 | 1020.1 |
| 20260503052118 | 54 | 151 | 2.0 | 5.0 | 0.00 | 0.00 | 0.00 | 57 | 1020.0 |
| 20260503051045 | 54 | 153 | 1.0 | 5.0 | 0.00 | 0.00 | 0.00 | 56 | 1020.0 |
| 20260503050043 | 54 | 153 | 2.0 | 5.0 | 0.00 | 0.00 | 0.00 | 56 | 1019.9 |
| 20260503045042 | 55 | 174 | 1.0 | 3.0 | 0.00 | 0.00 | 0.00 | 55 | 1019.7 |
| 20260503044042 | 55 | 175 | 2.0 | 3.0 | 0.00 | 0.00 | 0.00 | 53 | 1019.7 |
| 20260503043040 | 56 | 178 | 1.0 | 3.0 | 0.00 | 0.00 | 0.00 | 52 | 1019.8 |
| 20260503042039 | 56 | 180 | 1.0 | 3.0 | 0.00 | 0.00 | 0.00 | 50 | 1019.3 |
| 20260503041037 | 56 | 183 | 1.0 | 3.0 | 0.00 | 0.00 | 0.00 | 49 | 1019.2 |
| 20260503040036 | 56 | 184 | 2.0 | 3.0 | 0.00 | 0.00 | 0.00 | 49 | 1019.1 |
| 20260503035004 | 56 | 185 | 1.0 | 3.0 | 0.00 | 0.00 | 0.00 | 49 | 1018.7 |
| 20260503034003 | 56 | 185 | 1.0 | 3.0 | 0.00 | 0.00 | 0.00 | 49 | 1018.7 |
| 20260503033002 | 57 | 194 | 1.0 | 3.0 | 0.00 | 0.00 | 0.00 | 50 | 1018.7 |
| 20260503032000 | 57 | 195 | 1.0 | 3.0 | 0.00 | 0.00 | 0.00 | 51 | 1018.4 |
| 20260503031000 | 58 | 259 | 1.0 | 2.0 | 0.00 | 0.00 | 0.00 | 50 | 1018.5 |
| 20260503025958 | 60 | 259 | 1.0 | 2.0 | 0.00 | 0.00 | 0.00 | 48 | 1018.6 |
| 20260503024926 | 61 | 259 | 1.0 | 2.0 | 0.00 | 0.00 | 0.00 | 48 | 1018.8 |